STARLINK-1692 (46542 NORAD) Tracking and Keplerian Element Data
This shows tracking and keplerian element data for the satellite.
Feedback or suggestion? Click here.
Element | Value |
Catalog | 46542 |
Name | STARLINK-1692 |
Epoch Orbit | 176 |
Epoch Day | 26.91667824 |
Epoch Year | 2021 |
RAAN | 281.3826 |
Inclination | 53.0018 |
Eccentricity | 0.0002655 |
Argument of Perigee | 74.1856 |
Mean Anonmoly | 301.3214 |
Mean Motion | 15.05603696 |
Decay Rate | -0.00026763 |
L1 | 1 46542U 20070L 21026.91667824 -.00026763 00000-0 -18232-2 0 9998 |
L2 | 2 46542 53.0018 281.3826 0002655 74.1856 301.3214 15.05603696 1768 |
Live tracking and technical data element details for STARLINK-1692 (NORAD 46542). STARLINK-1692 can be tracked NOW for your location showing map with azimuth and elevation plus other details from your city location.
Track the satellite on the map from your city or location and see movement details for azimuth, elevation, latitude, longitude, range, height, and movement on the map or in text.
IsCatalogInMostPopularTable: catalog: 46542, numindb: 35
Update: records affected: 1
GetName: 46542 STARLINK-1692
Hit Count: updated at: Thu, 28 Jan 2021 11:10:43 GMT